{"data":{"norad_id":47262,"epoch":"2026-09-20T03:29:56.668128Z","epoch_age_seconds":44894,"freshness":"FRESH","line1":"1 47262U 20100E   26263.14579477 -.00000387  00000+0 -11114-2 0  9996","line2":"2 47262  87.8978 331.8127 0001582  98.3969 261.7338 13.12441781276978","mean_motion":13.12441781,"eccentricity":0.0001582,"inclination_deg":87.8978,"raan_deg":331.8127,"arg_perigee_deg":98.3969,"mean_anomaly_deg":261.7338,"bstar":-0.0011114,"rev_number":27697,"period_min":109.71915256331,"perigee_km":1212.5269589009,"apogee_km":1214.9290249844,"semimajor_km":7591.8649919426,"source":"CELESTRAK","updated_at":"2026-09-20T09:00:44.576566Z"}}